Regional Weather Roundup
Issued by NWS

Home | Current Version | Previous Version | Text Only | Print | Product List | Glossary On
Versions: 1 2 3 4 5 6 7 8 9 10 11 12 13 14 15 16 17 18 19 20 21 22 23 24 25 26 27 28 29 30 31 32 33 34 35 36 37 38 39 40 41 42 43 44 45 46 47 48 49 50
000
ASUS42 KKEY 261310
RWRKEY

FLORIDA REGIONAL WEATHER ROUNDUP FOR THE FLORIDA KEYS
NATIONAL WEATHER SERVICE KEY WEST FLORIDA
900 AM EDT SUN APR 26 2015

...SOUTH FLORIDA AND THE KEYS...

CITY           SKY/WX    TMP DP  RH WIND       PRES   REMARKS
FORT MYERS     SUNNY     83  74  74 SW14G21   29.81R
SW REGIONAL AP SUNNY     83  73  72 SW18      29.81S
NAPLES         SUNNY     84  74  71 SW16      29.83S HX  91
MIAMI          SUNNY     82  74  76 SW10      29.85R
WEST KENDALL   SUNNY     83  76  79 SW12G18   29.85R HX  91
HOMESTEAD      SUNNY     82  76  83 SW13      29.84S
MARATHON       SUNNY     87  75  67 VRB6      29.87R HX  96
BOCA CHICA NAS MOSUNNY   85  77  77 SW9       29.87R HX  95
KEY WEST INTL  SUNNY     83  78  85 SW7       29.87S HX  93

...INTERNATIONAL WEATHER...

CITY           SKY/WX    TMP DP  RH WIND       PRES   REMARKS
NASSAU BAHAMAS MOSUNNY   82  73  74 W17       29.86F
CANCUN MEXICO  SUNNY     82  77  83 SE16      29.85R HX  91
COZUMEL MEXICO SUNNY     77  75  94 SE8       29.85R

ADJACENT COASTAL WATERS...

STATION/POSITION TIME  SKY/WX   TEMP    WIND        PRES    WAVE
                                AIR SEA DIR/SP/G            HT/PER
                 (UTC)          (F)     (DEG/KT/KT) (MB)    (FT/S)
PULASKI SHOAL LI 1200            81     220/  5/  6 1011.0R
SAND KEY         1250            82     210/  7/  8 1011.5R
SOMBRERO KEY     1300            82     220/  9/ 10 1012.2R
LONG KEY         1200            84 86  260/  8/  8 1012.0R
MOLASSES REEF    1200            81 81  220/ 12/ 13 1011.0R
FOWEY ROCKS      NOT AVBL

$$



USA.gov is the U.S. government's official web portal to all federal, state and local government web resources and services.